TimeMST,TemperatureF,Dew PointF,Humidity,Sea Level PressureIn,VisibilityMPH,Wind Direction,Wind SpeedMPH,Gust SpeedMPH,PrecipitationIn,Events,Conditions,WindDirDegrees,DateUTC
12:53 AM,35.1,19.0,52,29.70,10.0,West,10.4,-,N/A,,Clear,270,2012-12-12 07:53:00
1:53 AM,37.0,19.9,50,29.66,10.0,West,21.9,32.2,N/A,,Clear,260,2012-12-12 08:53:00
2:53 AM,36.0,19.9,52,29.66,10.0,WSW,13.8,-,N/A,,Partly Cloudy,250,2012-12-12 09:53:00
3:53 AM,37.0,19.0,48,29.65,10.0,West,19.6,29.9,N/A,,Clear,260,2012-12-12 10:53:00
4:53 AM,39.0,19.0,45,29.63,10.0,WSW,20.7,27.6,N/A,,Clear,240,2012-12-12 11:53:00
5:02 AM,39.2,19.4,45,29.63,10.0,WSW,18.4,26.5,N/A,,Clear,240,2012-12-12 12:02:00
5:53 AM,37.9,19.0,47,29.65,10.0,WSW,18.4,21.9,N/A,,Clear,250,2012-12-12 12:53:00
6:53 AM,37.9,18.0,45,29.67,10.0,WSW,17.3,-,N/A,,Clear,240,2012-12-12 13:53:00
7:53 AM,37.0,17.1,44,29.68,10.0,SW,19.6,25.3,N/A,,Clear,230,2012-12-12 14:53:00
8:53 AM,39.0,19.9,46,29.70,10.0,South,8.1,-,N/A,,Clear,190,2012-12-12 15:53:00
9:53 AM,42.1,18.0,38,29.70,10.0,ESE,4.6,-,N/A,,Clear,120,2012-12-12 16:53:00
10:53 AM,45.0,19.0,36,29.69,10.0,SW,6.9,20.7,N/A,,Clear,220,2012-12-12 17:53:00
11:53 AM,46.0,19.0,34,29.67,10.0,WSW,25.3,34.5,N/A,,Clear,250,2012-12-12 18:53:00
12:53 PM,46.0,19.9,35,29.65,10.0,WSW,27.6,38.0,N/A,,Clear,250,2012-12-12 19:53:00
1:53 PM,48.9,19.9,32,29.63,10.0,West,26.5,35.7,N/A,,Clear,260,2012-12-12 20:53:00
2:53 PM,46.9,18.0,32,29.67,10.0,WSW,25.3,34.5,N/A,,Clear,240,2012-12-12 21:53:00
3:53 PM,44.1,19.0,37,29.70,10.0,WSW,19.6,27.6,N/A,,Clear,240,2012-12-12 22:53:00
4:53 PM,41.0,19.0,41,29.73,10.0,SW,16.1,-,N/A,,Clear,230,2012-12-12 23:53:00
5:53 PM,41.0,19.0,41,29.75,10.0,WSW,13.8,-,N/A,,Clear,240,2012-12-13 00:53:00
6:53 PM,41.0,19.0,41,29.78,10.0,WSW,15.0,26.5,N/A,,Clear,250,2012-12-13 01:53:00
7:53 PM,39.9,19.0,43,29.81,10.0,West,12.7,-,N/A,,Clear,270,2012-12-13 02:53:00
8:53 PM,37.0,19.0,48,29.84,10.0,WSW,10.4,-,N/A,,Clear,250,2012-12-13 03:53:00
9:53 PM,36.0,18.0,48,29.85,10.0,West,8.1,-,N/A,,Clear,260,2012-12-13 04:53:00
10:53 PM,32.0,18.0,56,29.88,10.0,WNW,5.8,-,N/A,,Clear,300,2012-12-13 05:53:00
11:53 PM,28.9,18.0,64,29.90,10.0,West,9.2,-,N/A,,Clear,280,2012-12-13 06:53:00